IRIDIUM 33 DEB, 34529

Orbit data source: Space-Track

IRIDIUM 33 DEB, 34529 is space debris in LEO originally from a launch on Sun, 14 Sep 1997 UTC launched from the Tyuratam Missile And Space Complex (TTMTR). The debris from Iridium 33, an American commercial communications satellite, has been tracked extensively since its accidental collision with the defunct Russian satellite Cosmos 2251 in 2009. This event, occurring at high speed in low Earth orbit (LEO), generated thousands of pieces of space debris, significantly increasing the risk of further collisions. The Iridium 33 debris cloud has impacted space traffic management and orbital debris mitigation strategies, making it a subject of ongoing study in space situational awareness.

Loading next visibility...
Identifier
34529, 1997-051HW
Orbit
LEO
Country
Flag of USUS
Related business
Manufacturer
Unknown
Mission
Spacecraft
Bus & Motor
Unknown
Mass
Unknown
Launch date (UTC)
1997-09-14 (28 years ago)
Launch vehicle
Unknown
Launch site
Tyuratam Missile And Space Complex (TTMTR)
Object type
Payload
Rocket body
Debris
Shape & HBR
Unknown shape, 0.1 m
Radar Cross Section
Small (<0.1 m²)

Expand to show TLE details & history
Last TLE update: 19 hours ago

TLE from 19 hours ago
0 IRIDIUM 33 DEB
1 34529U 97051HW  25354.13210161  .00000286  00000-0  83295-4 0  9996
2 34529  86.3633  32.2604 0005683 154.9999 205.1477 14.40621204882489
Epoch: 2025-12-20T03:10Z
TLE epoch observation values (Epoch: 2025-12-20T03:10:13.579Z)
Latitude
0.00004°
Longitude
-104.25947°
Altitude
763.178 km
Speed
7.471 km/s
True Right ascension
02h 09m 02s
True Declination
0° 00' 00"
Sunlit
Object was in full shadow at epoch
Visualization orbit readout
Latitude
Unknown
Longitude
Unknown
Altitude
Unknown
Speed
Unknown
Apparent Right ascension
Unknown
Apparent Declination
Unknown
Sunlit
N/A
Visualization observer readout
Local Sidereal Time
20:51:12
Azimuth
Unknown
Elevation
Unknown
Doppler factor
Unknown
Orbital elements
Apogee altitude
757.456 km
Perigee altitude
749.35 km
Semi-major axis
7,131.54 km
Eccentricity
0.00057
Inclination
86.3633°
RAAN
32.2604°
Arg. of periapsis
154.9999°
True anomaly
205.12004°
Mean anomaly
205.1477°
Eccentric anomaly
205.13387°
Mean motion
3.60386 °/min
Orbital period
99.89 mins
BSTAR
0.000083295
Loading maneuver chart data...
Computing Atmospheric mass density...
Loading historical data...
Loading historical data...
Loading historical data...
Loading historical data...
Loading historical data...
Loading historical data...
Loading historical data...

Documentation

Showing up to 5 results
|